TimeCST,TemperatureF,Dew PointF,Humidity,Sea Level PressureIn,VisibilityMPH,Wind Direction,Wind SpeedMPH,Gust SpeedMPH,PrecipitationIn,Events,Conditions,WindDirDegrees,DateUTC
12:15 AM,30.7,24.8,79,29.83,10.0,SE,15.0,-,N/A,,Mostly Cloudy,140,2014-02-17 06:15:00
12:35 AM,30.6,24.8,79,29.83,10.0,SSE,15.0,20.7,N/A,,Mostly Cloudy,150,2014-02-17 06:35:00
12:55 AM,30.7,25.2,80,29.82,10.0,SE,12.7,-,N/A,,Overcast,140,2014-02-17 06:55:00
1:15 AM,30.2,25.7,83,29.82,10.0,SE,10.4,-,N/A,,Overcast,130,2014-02-17 07:15:00
1:35 AM,30.2,25.9,84,29.80,10.0,SE,12.7,-,N/A,,Overcast,140,2014-02-17 07:35:00
1:55 AM,30.2,26.1,85,29.79,10.0,SE,10.4,-,N/A,,Overcast,130,2014-02-17 07:55:00
2:15 AM,30.0,25.9,85,29.79,7.0,SE,9.2,-,N/A,,Overcast,130,2014-02-17 08:15:00
2:35 AM,29.7,25.7,85,29.78,7.0,SE,9.2,-,N/A,,Overcast,140,2014-02-17 08:35:00
2:55 AM,29.8,25.7,85,29.78,7.0,SSE,10.4,-,N/A,,Overcast,150,2014-02-17 08:55:00
3:15 AM,29.8,25.7,85,29.80,7.0,South,4.6,-,N/A,,Overcast,190,2014-02-17 09:15:00
3:35 AM,30.2,26.2,85,29.84,7.0,West,8.1,-,N/A,Snow,Light Snow,270,2014-02-17 09:35:00
3:55 AM,30.0,26.4,86,29.82,1.2,Calm,Calm,-,N/A,Snow,Light Snow,0,2014-02-17 09:55:00
4:15 AM,29.5,26.8,90,29.82,1.0,Calm,Calm,-,0.02,Snow,Light Snow,0,2014-02-17 10:15:00
4:35 AM,29.3,27.1,92,29.83,2.5,WNW,3.5,-,0.02,Snow,Light Snow,300,2014-02-17 10:35:00
4:55 AM,29.5,27.3,92,29.82,3.0,Calm,Calm,-,0.02,,Overcast,0,2014-02-17 10:55:00
5:15 AM,29.7,27.3,91,29.83,4.0,SW,5.8,-,N/A,,Overcast,230,2014-02-17 11:15:00
5:35 AM,29.8,27.1,90,29.82,5.0,WSW,3.5,-,N/A,,Overcast,250,2014-02-17 11:35:00
5:55 AM,30.0,27.3,90,29.83,5.0,WNW,5.8,-,N/A,,Overcast,300,2014-02-17 11:55:00
6:15 AM,31.6,28.4,88,29.84,7.0,WNW,11.5,-,N/A,,Mostly Cloudy,290,2014-02-17 12:15:00
6:35 AM,35.1,31.1,85,29.85,10.0,WNW,18.4,24.2,N/A,,Scattered Clouds,300,2014-02-17 12:35:00
6:55 AM,35.8,31.5,84,29.86,10.0,WNW,16.1,-,N/A,,Scattered Clouds,290,2014-02-17 12:55:00
7:15 AM,35.6,31.1,84,29.86,10.0,WNW,13.8,-,N/A,,Clear,290,2014-02-17 13:15:00
7:35 AM,35.4,30.9,84,29.87,10.0,WNW,12.7,19.6,N/A,,Clear,290,2014-02-17 13:35:00
7:55 AM,34.7,30.2,84,29.87,10.0,West,13.8,-,N/A,,Clear,280,2014-02-17 13:55:00
8:15 AM,34.9,30.6,84,29.88,10.0,West,8.1,-,N/A,,Clear,260,2014-02-17 14:15:00
8:35 AM,35.8,30.9,82,29.88,10.0,West,13.8,18.4,N/A,,Clear,270,2014-02-17 14:35:00
8:55 AM,37.6,31.3,78,29.89,10.0,West,19.6,-,N/A,,Clear,280,2014-02-17 14:55:00
9:15 AM,39.4,30.9,72,29.90,10.0,West,23.0,28.8,N/A,,Clear,280,2014-02-17 15:15:00
9:35 AM,40.1,30.9,70,29.91,10.0,WNW,21.9,29.9,N/A,,Clear,290,2014-02-17 15:35:00
9:55 AM,41.5,31.8,68,29.91,10.0,WNW,20.7,33.4,N/A,,Clear,290,2014-02-17 15:55:00
10:15 AM,43.0,31.1,63,29.92,10.0,WNW,27.6,35.7,N/A,,Clear,290,2014-02-17 16:15:00
10:35 AM,44.1,30.4,59,29.93,10.0,WNW,27.6,34.5,N/A,,Clear,300,2014-02-17 16:35:00
10:55 AM,45.5,29.7,54,29.93,10.0,WNW,24.2,33.4,N/A,,Clear,300,2014-02-17 16:55:00
11:15 AM,46.8,27.3,47,29.93,10.0,NW,20.7,32.2,N/A,,Clear,310,2014-02-17 17:15:00
11:35 AM,48.0,25.0,41,29.93,10.0,WNW,26.5,31.1,N/A,,Clear,300,2014-02-17 17:35:00
11:55 AM,49.3,24.8,38,29.93,10.0,NW,25.3,29.9,N/A,,Clear,310,2014-02-17 17:55:00
12:15 PM,50.0,24.6,37,29.92,10.0,WNW,23.0,28.8,N/A,,Clear,300,2014-02-17 18:15:00
12:35 PM,51.1,22.3,32,29.91,10.0,WNW,21.9,27.6,N/A,,Clear,300,2014-02-17 18:35:00
12:55 PM,52.0,20.8,30,29.90,10.0,NW,24.2,31.1,N/A,,Clear,310,2014-02-17 18:55:00
1:15 PM,52.7,21.0,29,29.89,10.0,WNW,29.9,34.5,N/A,,Clear,300,2014-02-17 19:15:00
1:35 PM,52.7,20.1,28,29.89,10.0,NW,23.0,28.8,N/A,,Clear,310,2014-02-17 19:35:00
1:55 PM,53.6,17.4,24,29.89,10.0,NW,24.2,35.7,N/A,,Clear,310,2014-02-17 19:55:00
2:15 PM,53.4,17.1,24,29.89,10.0,WNW,27.6,35.7,N/A,,Clear,300,2014-02-17 20:15:00
2:35 PM,54.5,16.2,22,29.89,10.0,NW,23.0,29.9,N/A,,Clear,310,2014-02-17 20:35:00
2:55 PM,54.3,15.6,22,29.89,10.0,NW,21.9,32.2,N/A,,Clear,310,2014-02-17 20:55:00
3:15 PM,54.7,16.0,22,29.89,10.0,NW,25.3,29.9,N/A,,Clear,310,2014-02-17 21:15:00
3:35 PM,54.3,14.5,21,29.90,10.0,NW,24.2,33.4,N/A,,Clear,310,2014-02-17 21:35:00
3:55 PM,54.0,14.7,21,29.90,10.0,NW,20.7,27.6,N/A,,Clear,310,2014-02-17 21:55:00
4:15 PM,54.1,15.8,22,29.91,10.0,WNW,17.3,24.2,N/A,,Clear,300,2014-02-17 22:15:00
4:35 PM,53.6,16.0,23,29.91,10.0,WNW,15.0,20.7,N/A,,Clear,290,2014-02-17 22:35:00
4:55 PM,52.9,16.7,24,29.91,10.0,West,11.5,-,N/A,,Clear,280,2014-02-17 22:55:00
5:15 PM,52.0,16.9,25,29.91,10.0,West,6.9,-,N/A,,Clear,280,2014-02-17 23:15:00
5:35 PM,49.1,17.2,28,29.91,10.0,West,4.6,-,N/A,,Clear,270,2014-02-17 23:35:00
5:55 PM,50.4,14.9,24,29.91,10.0,WSW,4.6,-,N/A,,Clear,250,2014-02-17 23:55:00
6:15 PM,46.8,15.6,29,29.91,10.0,WSW,3.5,-,N/A,,Clear,250,2014-02-18 00:15:00
6:35 PM,43.5,16.2,33,29.91,10.0,Calm,Calm,-,N/A,,Clear,0,2014-02-18 00:35:00
6:55 PM,40.6,17.4,39,29.91,10.0,SSW,3.5,-,N/A,,Clear,210,2014-02-18 00:55:00
7:15 PM,39.0,15.3,38,29.90,10.0,South,4.6,-,N/A,,Clear,170,2014-02-18 01:15:00
7:35 PM,34.9,15.8,46,29.89,10.0,South,5.8,-,N/A,,Clear,180,2014-02-18 01:35:00
7:55 PM,35.1,16.7,47,29.88,10.0,SSW,5.8,-,N/A,,Clear,200,2014-02-18 01:55:00
8:15 PM,36.5,15.8,43,29.88,10.0,SSW,6.9,-,N/A,,Clear,200,2014-02-18 02:15:00
8:35 PM,36.9,15.3,41,29.87,10.0,SSW,6.9,-,N/A,,Clear,200,2014-02-18 02:35:00
8:55 PM,34.7,15.6,46,29.86,10.0,South,6.9,-,N/A,,Clear,180,2014-02-18 02:55:00
9:15 PM,32.2,17.1,54,29.85,10.0,SSE,9.2,-,N/A,,Clear,160,2014-02-18 03:15:00
9:35 PM,31.1,17.2,57,29.85,10.0,SSE,6.9,-,N/A,,Clear,160,2014-02-18 03:35:00
9:55 PM,30.7,17.6,58,29.85,10.0,South,8.1,-,N/A,,Clear,190,2014-02-18 03:55:00
10:15 PM,36.3,17.8,47,29.85,10.0,SSW,5.8,-,N/A,,Clear,200,2014-02-18 04:15:00
10:35 PM,35.1,17.6,49,29.84,10.0,SSW,5.8,-,N/A,,Clear,200,2014-02-18 04:35:00
10:55 PM,34.5,18.0,51,29.83,10.0,South,5.8,-,N/A,,Clear,190,2014-02-18 04:55:00
11:15 PM,35.6,18.5,50,29.82,10.0,South,6.9,-,N/A,,Clear,190,2014-02-18 05:15:00
11:35 PM,35.2,18.3,50,29.81,10.0,South,6.9,-,N/A,,Clear,190,2014-02-18 05:35:00
11:55 PM,34.9,18.9,52,29.80,10.0,SSE,6.9,-,N/A,,Clear,160,2014-02-18 05:55:00